Location: Treviso
(45.6669°N, 12.2430°E)
Time: 08:25:50
(UTC+02:00)

CUBESAT XI-V - Pass Details

Date: 02 May 2019
Orbit: 668 x 694 km, 98.0° (Epoch: 19 May)

Event Time Altitude Azimuth Distance (km) Brightness Sun altitude
Exits shadow 02:04:38 - 105° (ESE) 2,736 ? -27.8°
Reaches altitude 10° 02:07:10 10° 83° (E) 2,131 ? -27.7°
Maximum altitude 02:09:04 12° 58° (ENE) 1,965 ? -27.6°
Drops below altitude 10° 02:10:59 10° 34° (NNE) 2,130 ? -27.5°
Sets 02:14:29 0° 5° (N) 3,044 ? -27.3°
